COSMOS 2251 DEB

基本信息
目录编号:
37499
目录名称:
COSMOS 2251 DEB
国际标识:
1993-036BMC
轨道中心:
EARTH
物体状态:
在轨
发射日期:
1993-06-16 UTC
轨道信息
数据来源: 国际轨道数据
星历时间: 2026-09-14T02:53:47+0800
半长轴: 7154.713km
偏心率: 0.0028256
轨道倾角: 74.038°
近地点辐角: 192.433°
升交点赤经: 178.567°
平近点角: 167.613°
近地点: 756.359km
远地点: 796.793km
周期: 100.380分钟
每日圈数: 14.34546
详细信息
发射场:
PKMTR
轨道高度:
LEO
数据来源:
AOE Integration Group
参考系:
TEME
时间系统:
UTC
历元类型:
SGP4
2D轨道图
3D轨道图
轨道高度分析图
轨道倾角分析图
轨道综合分析图
查看轨道综合分析图